x

9442396 - La Push, Wa (lapw1) Weather Station

2:30pm - Fri 9th Dec 2016 All times are PST. -8 hours from GMT.

  • Wind
    6mph, 9mph gusts
  • Sea Temp 38°f
  • 空気 Temp 43°f
  • Sea Pressure 1010.4mb
  • 9442396 - La Push, Wa
  • 9442396 - La Push, Wa

More Historic Weather Station data

Upgrade to MSW Pro to gain access to the past 30 days of data for over 8000 Wavebouys and Weather Stations around the globe.

Join Pro

Comparision Forecast

View Surf forecast
   
Fri 12/09 2:30pm 6 9 mph 1010.4mb 38f 43f
2:24pm 5 7 mph 1010.4mb 38f 43f
2:18pm 6 7 mph 1010.6mb 38f 43f
2:12pm 3 8 mph 1010.7mb 37f 43f
2:06pm 6 9 mph 1010.8mb 37f 43f
2:00pm 5 7 mph 1010.9mb 37f 44f
1:36pm 6 9 mph 1011mb 37f 43f
1:30pm 6 8 mph 1011.1mb 37f 43f
1:24pm 3 8 mph 1011.1mb 38f 43f
1:18pm 3 10 mph 1011.2mb 38f 43f
1:12pm 6 10 mph 1011.3mb 38f 44f
1:06pm 6 9 mph 1011.4mb 38f 44f
1:00pm 6 9 mph 1011.4mb 38f 44f
12:36pm 8 20 mph 1011.5mb 38f 44f
12:30pm 11 17 mph 1011.6mb 38f 44f
12:24pm 8 16 mph 1011.6mb 38f 43f
12:18pm 8 14 mph 1011.6mb 39f 43f
12:12pm 9 14 mph 1011.7mb 39f 43f
12:06pm 8 15 mph 1011.9mb 39f 43f
12:00pm 8 15 mph 1012mb 39f 43f
11:36am 5 11 mph 1012.3mb 42f 43f
11:30am 7 15 mph 1012.4mb 43f 43f
11:24am 5 11 mph 1012.4mb 44f 43f
11:18am 7 13 mph 1012.5mb 45f 43f
11:12am 8 13 mph 1012.5mb 46f 43f
11:06am 6 9 mph 1012.5mb 47f 42f
11:00am 3 10 mph 1012.5mb 47f 42f
10:36am 5 7 mph 1012.5mb 49f 41f
10:30am 6 9 mph 1012.5mb 49f 41f
10:24am 3 8 mph 1012.7mb 49f 41f
10:18am 5 8 mph 1012.7mb 49f 40f
10:12am 5 7 mph 1012.5mb 49f 40f
10:06am 6 8 mph 1012.6mb 49f 40f
10:00am 6 7 mph 1012.6mb 49f 40f
9:36am 5 8 mph 1012.5mb 50f 40f
9:30am 6 9 mph 1012.4mb 50f 39f
9:24am 5 7 mph 1012.5mb 50f 39f
9:18am 5 10 mph 1012.5mb 50f 39f
9:12am 6 8 mph 1012.5mb 50f 39f
9:06am 5 7 mph 1012.4mb 50f 40f
9:00am 6 10 mph 1012.4mb 50f 39f
8:36am 6 8 mph 1012.3mb 50f 42f
8:30am 5 9 mph 1012.2mb 50f 42f
8:24am 5 7 mph 1012.2mb 50f 42f
8:18am 2 11 mph 1012.1mb 51f 42f
8:12am 7 10 mph 1012mb 51f 42f
8:06am 9 15 mph 1011.9mb 51f 42f
8:00am 8 14 mph 1012.1mb 51f 42f
7:36am 6 16 mph 1011.9mb 50f 42f
7:30am 9 16 mph 1011.9mb 50f 43f
7:24am 8 17 mph 1012mb 50f 43f
7:18am 10 17 mph 1012.1mb 50f 43f
7:12am 11 18 mph 1012.1mb 50f 43f
7:06am 8 15 mph 1012.1mb 50f 43f
7:00am 8 14 mph 1012.1mb 50f 42f
6:36am 5 10 mph 1011.8mb 50f 43f
6:30am 6 10 mph 1011.9mb 50f 42f
6:24am 6 11 mph 1011.9mb 50f 42f
6:18am 6 13 mph 1011.8mb 50f 42f
6:12am 5 9 mph 1011.8mb 50f 42f
6:06am 6 15 mph 1011.8mb 50f 41f
6:00am 5 9 mph 1011.7mb 50f 41f
5:36am 7 10 mph 1011.6mb 50f 39f
5:30am 7 10 mph 1011.7mb 50f 38f
5:24am 3 8 mph 1011.7mb 49f 41f
5:18am 7 13 mph 1011.5mb 49f 42f
5:12am 7 14 mph 1011.2mb 49f 42f
5:06am 7 14 mph 1011.3mb 49f 42f
5:00am 8 15 mph 1011.3mb 49f 41f
4:36am 8 9 mph 1011.5mb 49f 36f
4:30am 7 9 mph 1011.6mb 49f 35f
4:24am 5 10 mph 1011.5mb 49f 35f
4:18am 9 13 mph 1011.2mb 48f 37f
4:12am 8 13 mph 1011.1mb 48f 40f
4:06am 9 14 mph 1011mb 47f 39f
4:00am 8 15 mph 1011.1mb 47f 37f
3:36am 8 10 mph 1011.4mb 38f 33f
3:30am 6 11 mph 1011.1mb - 33f
3:24am 8 13 mph 1010.9mb - 33f
3:18am 9 14 mph 1011mb - 33f
3:12am 10 14 mph 1011mb - 33f
3:06am 8 13 mph 1011.1mb - 33f
3:00am 9 13 mph 1011mb - 33f
2:36am 11 16 mph 1010.9mb - 33f
2:30am 11 15 mph 1010.9mb - 33f
2:24am 9 14 mph 1010.8mb - 33f
2:18am 9 13 mph 1010.8mb - 33f
2:12am 9 15 mph 1010.8mb - 32f
2:06am 8 13 mph 1010.8mb - 32f
2:00am 8 14 mph 1010.9mb - 32f
1:36am 10 16 mph 1010.8mb - 32f
1:30am 10 15 mph 1010.7mb - 32f
1:24am 10 15 mph 1010.6mb - 32f
1:18am 11 15 mph 1010.8mb - 32f
1:12am 7 13 mph 1011mb - 32f
1:06am 10 16 mph 1010.9mb - 32f
1:00am 10 16 mph 1010.8mb - 32f
12:36am 11 17 mph 1010.4mb 36f 31f
12:30am 11 15 mph 1010.5mb 36f 31f
12:24am 10 16 mph 1010.5mb 36f 31f
12:18am 13 16 mph 1010.5mb 36f 31f
12:12am 8 16 mph 1010.5mb 36f 31f
12:06am 6 16 mph 1010.4mb 37f 31f
12:00am 8 16 mph 1010.4mb 37f 31f
Thu 12/08 11:36pm 10 13 mph 1010.4mb 38f 31f
11:30pm 9 15 mph 1010.5mb 38f 32f
11:24pm 10 15 mph 1010.4mb 38f 33f
11:18pm 10 15 mph 1010.3mb 39f 33f
11:12pm 7 13 mph 1010.3mb 39f 33f
11:06pm 8 17 mph 1010.2mb 39f 33f
11:00pm 11 15 mph 1010.2mb 40f 33f
10:36pm 7 16 mph 1010mb 40f 34f
10:30pm 9 17 mph 1010mb 41f 34f
10:24pm 9 14 mph 1009.9mb 42f 34f
10:18pm 8 13 mph 1009.8mb 42f 34f
10:12pm 9 13 mph 1009.7mb 43f 34f
10:06pm 7 17 mph 1009.6mb 44f 34f
10:00pm 6 13 mph 1009.7mb 45f 34f
9:36pm 8 18 mph 1009.5mb 49f 35f
9:30pm 7 15 mph 1009.5mb 50f 35f
9:24pm 10 22 mph 1009.5mb 50f 35f
9:18pm 10 17 mph 1009.6mb 50f 35f
9:12pm 6 15 mph 1009.5mb 51f 35f
9:06pm 9 18 mph 1009.5mb 51f 35f
9:00pm 8 17 mph 1009.4mb 51f 35f
8:36pm 7 16 mph 1009.3mb 51f 35f
8:30pm 8 18 mph 1009.3mb 51f 35f
8:24pm 8 15 mph 1009.2mb 51f 35f
8:18pm 7 16 mph 1009.2mb 51f 35f
8:12pm 8 16 mph 1009.1mb 51f 34f
8:06pm 5 14 mph 1009mb 51f 35f
8:00pm 9 15 mph 1009.2mb 51f 34f
7:36pm 2 8 mph 1009.6mb 51f 36f
7:30pm 2 8 mph 1009.7mb 51f 36f
7:24pm 3 8 mph 1009.7mb 51f 36f
7:18pm 5 11 mph 1009.7mb 51f 36f
7:12pm 8 10 mph 1009.6mb 51f 36f
7:06pm 7 10 mph 1009.5mb 51f 36f
7:00pm 6 14 mph 1009.4mb 51f 36f
6:36pm 8 14 mph 1009.5mb 51f 36f
6:30pm 7 11 mph 1009.5mb 51f 36f
6:24pm 5 13 mph 1009.5mb 51f 36f
6:18pm 7 13 mph 1009.4mb 51f 36f
6:12pm 7 14 mph 1009.5mb 51f 36f
6:06pm 10 15 mph 1009.5mb 51f 36f
6:00pm 7 13 mph 1009.5mb 51f 36f
5:36pm 8 15 mph 1009.6mb 50f 36f
5:30pm 10 16 mph 1009.5mb 50f 36f
5:24pm 8 15 mph 1009.6mb 50f 36f
5:18pm 9 18 mph 1009.7mb 51f 36f
5:12pm 13 18 mph 1009.5mb 50f 36f
5:06pm 9 17 mph 1009.5mb 50f 36f
5:00pm 10 17 mph 1009.5mb 50f 36f
4:36pm 7 13 mph 1009.8mb 48f 36f
4:30pm 8 14 mph 1009.7mb 47f 36f
4:24pm 8 15 mph 1009.8mb 46f 36f
4:18pm 10 14 mph 1009.8mb 45f 36f
4:12pm 9 15 mph 1009.7mb 44f 36f
4:06pm 7 17 mph 1009.8mb 41f 36f
4:00pm 9 18 mph 1009.7mb 38f 36f
3:36pm 7 17 mph 1010.1mb - 36f
3:30pm 8 14 mph 1010.1mb - 36f
3:24pm 7 13 mph 1010.1mb - 36f
3:18pm 8 15 mph 1010.3mb - 36f
3:12pm 7 16 mph 1010.4mb - 36f
3:06pm 11 22 mph 1010.5mb - 36f
3:00pm 7 16 mph 1010.4mb - 36f
2:54pm 8 21 mph 1010.5mb - 36f
2:48pm 11 18 mph 1010.6mb - 36f
2:36pm 8 15 mph 1010.8mb - 36f
2:30pm 9 16 mph 1010.9mb - 36f
2:24pm 9 20 mph 1011.1mb - 36f
2:18pm 10 18 mph 1010.9mb - 36f
2:12pm 10 22 mph 1010.8mb - 36f
2:06pm 11 22 mph 1010.9mb - 36f
2:00pm 9 21 mph 1010.9mb - 36f
1:54pm 11 29 mph 1010.9mb - 36f
1:48pm 13 22 mph 1010.9mb - 36f
1:36pm 11 21 mph 1010.9mb - 36f
1:30pm 11 25 mph 1011mb - 36f
1:24pm 13 21 mph 1011.1mb - 37f
1:18pm 10 21 mph 1011.1mb - 37f
1:12pm 11 18 mph 1011.1mb - 37f
1:06pm 14 23 mph 1011mb - 37f
1:00pm 10 22 mph 1011mb - 37f
12:54pm 15 23 mph 1011.1mb - 37f
12:48pm 15 22 mph 1011.3mb - 37f
12:36pm 10 22 mph 1011.7mb - 37f
12:30pm 10 24 mph 1011.8mb - 37f
12:24pm 14 24 mph 1012mb - 37f
12:18pm 13 21 mph 1012mb 36f 37f
12:12pm 10 22 mph 1012.2mb 36f 36f
12:06pm 16 28 mph 1012.2mb 37f 36f
12:00pm 16 28 mph 1012.3mb 37f 36f
11:54am 13 26 mph 1012.4mb 37f 36f
11:48am 13 22 mph 1012.5mb 38f 36f
11:36am 14 23 mph 1012.7mb 37f 35f
11:30am 11 25 mph 1012.7mb 38f 35f
11:24am 10 21 mph 1012.8mb 38f 35f
11:18am 14 22 mph 1012.8mb 39f 35f
11:12am 11 25 mph 1012.9mb 39f 35f
11:06am 13 23 mph 1012.9mb 40f 35f
11:00am 13 22 mph 1012.9mb 40f 35f
10:54am 9 23 mph 1013mb 41f 35f
10:48am 14 26 mph 1013.1mb 41f 35f
10:36am 10 22 mph 1013.6mb 43f 35f
10:30am 11 22 mph 1013.7mb 44f 35f
10:24am 16 22 mph 1013.8mb 45f 35f
10:18am 9 18 mph 1014mb 46f 34f
10:12am 14 23 mph 1014mb 47f 34f
10:06am 11 23 mph 1014.2mb 48f 34f
10:00am 13 24 mph 1014.3mb 49f 34f
9:54am 10 17 mph 1014.3mb 49f 34f
9:48am 11 18 mph 1014.4mb 49f 34f
9:36am 11 21 mph 1014.3mb 49f 34f
9:30am 9 18 mph 1014.5mb 49f 34f
9:24am 10 21 mph 1014.5mb 49f 34f
9:18am 10 18 mph 1014.6mb 49f 34f
9:12am 10 18 mph 1014.7mb 49f 34f
9:06am 14 22 mph 1014.7mb 49f 34f
9:00am 11 20 mph 1014.7mb 49f 33f
8:54am 10 18 mph 1014.9mb 49f 33f
8:48am 9 21 mph 1014.8mb 49f 33f
8:36am 11 21 mph 1014.9mb 49f 33f
8:30am 10 16 mph 1015mb 49f 33f
8:24am 10 21 mph 1014.9mb 49f 33f
8:18am 10 17 mph 1015mb 49f 33f
8:12am 10 17 mph 1015.1mb 50f 33f
8:06am 10 15 mph 1015.1mb 50f 33f
8:00am 11 17 mph 1015.3mb 50f 33f
7:54am 10 16 mph 1015.4mb 50f 33f
7:48am 8 20 mph 1015.4mb 50f 33f
7:36am 9 17 mph 1015.5mb 50f 33f
7:30am 9 20 mph 1015.6mb 50f 33f
7:24am 9 25 mph 1015.7mb 49f 33f
7:18am 10 15 mph 1015.8mb 50f 32f
7:12am 10 17 mph 1015.9mb 50f 33f
7:06am 9 16 mph 1016mb 50f 33f
7:00am 13 20 mph 1016.1mb 50f 33f
6:54am 10 17 mph 1016.2mb 50f 33f
6:48am 9 16 mph 1016.3mb 50f 33f
6:36am 11 18 mph 1016.5mb 50f 33f
6:30am 13 22 mph 1016.6mb 50f 33f
6:24am 9 15 mph 1016.6mb 49f 33f
6:18am 10 17 mph 1016.7mb 50f 33f
6:12am 13 18 mph 1016.7mb 50f 33f
6:06am 8 15 mph 1016.6mb 50f 33f
6:00am 10 17 mph 1016.5mb 50f 32f
5:54am 8 18 mph 1016.5mb 50f 32f
5:48am 7 16 mph 1016.6mb 50f 32f
5:36am 9 18 mph 1016.7mb 49f 32f
5:30am 9 18 mph 1016.7mb 49f 32f
5:24am 10 18 mph 1016.8mb 49f 32f
5:18am 9 17 mph 1016.9mb 49f 32f
5:12am 9 17 mph 1017mb 49f 32f
5:06am 10 16 mph 1017.1mb 49f 32f
5:00am 10 18 mph 1017.2mb 49f 32f
4:54am 9 16 mph 1017.4mb 49f 32f
4:48am 9 16 mph 1017.6mb 49f 32f
4:36am 7 20 mph 1017.9mb 48f 32f
4:30am 10 15 mph 1018mb 48f 32f
4:24am 9 14 mph 1018.1mb 48f 32f
4:18am 9 14 mph 1018.2mb 48f 32f
4:12am 8 17 mph 1018.3mb 47f 32f
4:06am 7 18 mph 1018.4mb 46f 32f
4:00am 10 16 mph 1018.4mb 45f 32f
3:54am 11 16 mph 1018.5mb 44f 32f
3:48am 10 15 mph 1018.7mb 42f 32f
3:36am 9 17 mph 1019mb 38f 32f
3:30am 8 15 mph 1019mb 37f 32f
3:24am 8 15 mph 1019.1mb 36f 32f
3:18am 9 18 mph 1019.2mb 36f 32f
3:12am 8 14 mph 1019.4mb 36f 32f
3:06am 11 18 mph 1019.6mb 36f 32f
3:00am 8 16 mph 1019.6mb 36f 32f
2:54am 9 15 mph 1019.7mb 36f 32f
2:48am 10 16 mph 1019.8mb 36f 32f
2:36am 8 14 mph 1020mb 36f 32f
2:30am 8 16 mph 1020.1mb 36f 32f
2:24am 8 16 mph 1020.2mb 36f 33f
2:18am 9 14 mph 1020.3mb 36f 33f
2:12am 11 16 mph 1020.4mb 36f 33f
2:06am 8 15 mph 1020.4mb - 33f
2:00am 6 14 mph 1020.5mb - 33f
1:54am 8 17 mph 1020.5mb - 33f
1:48am 11 20 mph 1020.5mb - 33f
1:36am 9 17 mph 1020.5mb - 33f
1:30am 9 15 mph 1020.5mb - 33f
1:24am 7 16 mph 1020.5mb - 33f
1:18am 9 15 mph 1020.6mb - 33f
1:12am 9 17 mph 1020.8mb - 33f
1:06am 9 16 mph 1020.8mb - 33f
1:00am 8 15 mph 1020.9mb - 33f
12:54am 9 14 mph 1021mb - 33f
12:48am 10 16 mph 1021mb - 33f
12:36am 10 17 mph 1021.2mb - 33f
12:30am 8 16 mph 1021.3mb - 33f
12:24am 10 17 mph 1021.3mb - 33f
12:18am 7 14 mph 1021.4mb - 33f
12:12am 7 13 mph 1021.5mb - 33f
12:06am 7 13 mph 1021.5mb - 33f
12:00am 7 10 mph 1021.6mb - 33f
Wed 12/07 11:54pm 9 13 mph 1021.7mb - 33f
11:48pm 7 14 mph 1021.8mb - 33f
11:36pm 5 11 mph 1022mb - 33f
11:30pm 7 13 mph 1022.1mb - 33f
11:24pm 6 14 mph 1022.2mb - 33f
11:18pm 7 15 mph 1022.3mb 36f 33f
11:12pm 9 14 mph 1022.5mb 36f 33f
11:06pm 8 11 mph 1022.5mb 36f 33f
11:00pm 7 13 mph 1022.6mb 36f 33f
10:54pm 7 14 mph 1022.6mb 36f 33f
10:48pm 9 13 mph 1022.5mb 37f 33f
10:36pm 9 14 mph 1022.6mb 37f 33f
10:30pm 9 14 mph 1022.8mb 37f 33f
10:24pm 8 13 mph 1022.7mb 37f 33f
10:18pm 9 13 mph 1022.7mb 37f 33f
10:12pm 7 14 mph 1022.7mb 37f 33f
10:06pm 7 13 mph 1022.9mb 37f 33f
10:00pm 8 14 mph 1022.9mb 37f 33f
9:54pm 7 10 mph 1023mb 37f 33f
9:48pm 9 15 mph 1023.1mb 37f 33f
9:36pm 10 18 mph 1023.2mb 37f 33f
9:30pm 11 16 mph 1023.2mb 38f 33f
9:24pm 10 15 mph 1023.3mb 38f 33f
9:18pm 9 15 mph 1023.2mb 38f 33f
9:12pm 9 17 mph 1023.3mb 38f 33f
9:06pm 9 18 mph 1023.2mb 38f 33f
9:00pm 9 14 mph 1023.2mb 38f 33f
8:54pm 8 14 mph 1023.2mb 38f 33f
8:48pm 9 13 mph 1023.3mb 39f 32f
8:36pm 9 15 mph 1023.4mb 39f 32f
8:30pm 9 15 mph 1023.5mb 40f 32f
8:24pm 7 14 mph 1023.6mb 40f 32f
8:18pm 10 17 mph 1023.7mb 40f 32f
8:12pm 11 16 mph 1023.8mb 40f 32f
8:06pm 9 16 mph 1023.9mb 41f 32f
8:00pm 8 14 mph 1024mb 42f 32f
7:54pm 7 14 mph 1024.1mb 44f 32f
7:48pm 8 14 mph 1024.2mb 46f 32f
7:36pm 8 15 mph 1024.5mb 49f 32f
7:30pm 6 14 mph 1024.7mb 49f 32f
7:24pm 7 11 mph 1024.8mb 49f 32f
7:18pm 6 10 mph 1024.9mb 50f 32f
7:12pm 6 8 mph 1025mb 50f 32f
7:06pm 6 8 mph 1025mb 50f 31f
7:00pm 6 9 mph 1025.1mb 50f 32f
6:54pm 6 10 mph 1025.1mb 50f 32f
6:48pm 6 10 mph 1025.2mb 50f 32f
6:36pm 7 11 mph 1025.4mb 51f 32f
6:30pm 7 9 mph 1025.5mb 51f 32f
6:24pm 7 10 mph 1025.6mb 51f 32f
6:18pm 8 14 mph 1025.6mb 51f 32f
6:12pm 6 10 mph 1025.7mb 51f 32f
6:06pm 6 13 mph 1025.7mb 51f 32f
6:00pm 7 11 mph 1025.8mb 51f 32f
5:54pm 6 10 mph 1025.9mb 51f 32f
5:48pm 7 11 mph 1025.9mb 51f 32f
5:36pm 7 11 mph 1026.1mb 51f 32f
5:30pm 7 11 mph 1026.1mb 51f 32f
5:24pm 7 11 mph 1026.2mb 51f 32f
5:18pm 7 11 mph 1026.2mb 51f 32f
5:12pm 7 14 mph 1026.2mb 51f 32f
5:06pm 8 14 mph 1026.3mb 50f 32f
5:00pm 8 13 mph 1026.4mb 51f 32f
4:54pm 8 10 mph 1026.4mb 50f 32f
4:48pm 9 13 mph 1026.5mb 51f 32f
4:36pm 6 10 mph 1026.6mb 50f 32f
4:30pm 6 11 mph 1026.7mb 49f 32f
4:24pm 8 11 mph 1026.8mb 49f 32f
4:18pm 6 11 mph 1026.9mb 49f 32f
4:12pm 6 9 mph 1026.9mb 50f 32f
4:06pm 3 8 mph 1026.9mb 49f 32f
4:00pm 5 9 mph 1027mb 49f 33f
3:54pm 7 10 mph 1027.1mb 48f 33f
3:48pm 5 10 mph 1027.2mb 48f 33f
3:36pm 5 11 mph 1027.3mb 45f 33f
3:30pm 5 11 mph 1027.3mb 42f 34f
3:24pm 7 10 mph 1027.3mb 40f 34f
3:18pm 7 14 mph 1027.4mb 39f 34f
3:12pm 7 10 mph 1027.5mb 38f 34f
3:06pm 7 13 mph 1027.5mb 38f 34f
3:00pm 6 13 mph 1027.6mb 38f 35f
2:54pm 7 11 mph 1027.6mb 38f 35f
2:48pm 6 14 mph 1027.6mb 38f 35f
2:36pm 8 16 mph 1027.7mb 38f 35f
2:30pm 6 13 mph 1027.7mb 38f 35f
2:24pm 7 14 mph 1027.7mb 37f 35f
2:18pm 8 14 mph 1027.8mb 37f 35f
2:12pm 6 14 mph 1027.8mb 37f 35f
2:06pm 7 15 mph 1027.7mb 37f 36f
2:00pm 8 14 mph 1027.7mb 37f 36f
1:54pm 8 13 mph 1027.7mb 37f 36f
1:48pm 7 14 mph 1027.7mb 37f 36f
1:36pm 9 14 mph 1027.7mb 37f 36f
1:30pm 8 14 mph 1027.8mb 37f 36f
1:24pm 6 10 mph 1027.8mb 37f 36f
1:18pm 8 13 mph 1027.9mb 37f 36f
1:12pm 5 10 mph 1028mb 37f 36f
1:06pm 7 11 mph 1028.2mb 37f 36f
1:00pm 9 14 mph 1028.3mb 37f 36f
12:54pm 6 13 mph 1028.3mb 37f 35f
12:48pm 9 13 mph 1028.3mb 37f 35f
12:36pm 9 15 mph 1028.4mb 37f 35f
12:30pm 9 14 mph 1028.6mb 37f 35f
12:24pm 8 14 mph 1028.6mb 37f 34f
12:18pm 10 15 mph 1028.7mb 37f 35f
12:12pm 8 14 mph 1028.8mb 37f 34f
12:06pm 7 15 mph 1028.8mb 37f 34f
12:00pm 8 14 mph 1028.8mb 38f 34f
11:54am 7 13 mph 1028.9mb 37f 34f
11:48am 7 13 mph 1029mb 38f 33f
11:36am 9 15 mph 1029.2mb 37f 33f
11:30am 10 16 mph 1029.3mb 38f 33f
11:24am 7 16 mph 1029.3mb 37f 33f
11:18am 8 13 mph 1029.4mb 37f 33f
11:12am 8 15 mph 1029.4mb 37f 33f
11:06am 8 13 mph 1029.4mb 37f 33f
11:00am 9 14 mph 1029.5mb 37f 33f
10:54am 9 14 mph 1029.5mb 37f 32f
10:48am 9 17 mph 1029.5mb 38f 32f
10:36am 8 14 mph 1029.5mb 38f 32f
10:30am 8 15 mph 1029.5mb 38f 32f
10:24am 8 15 mph 1029.5mb 38f 32f
10:18am 8 16 mph 1029.4mb 38f 32f
10:12am 9 16 mph 1029.5mb 38f 31f
10:06am 11 16 mph 1029.4mb 39f 31f
10:00am 10 16 mph 1029.4mb 39f 31f
9:54am 9 15 mph 1029.5mb 39f 31f
9:48am 9 14 mph 1029.5mb 39f 31f
9:36am 8 20 mph 1029.6mb 40f 31f
9:30am 8 16 mph 1029.6mb 40f 30f
9:24am 9 15 mph 1029.6mb 40f 30f
9:18am 9 17 mph 1029.6mb 40f 30f
9:12am 8 14 mph 1029.7mb 41f 30f
9:06am 9 16 mph 1029.7mb 42f 30f
9:00am 7 15 mph 1029.6mb 42f 30f
8:54am 9 17 mph 1029.6mb 42f 30f
8:48am 9 14 mph 1029.7mb 43f 29f
8:36am 8 15 mph 1029.7mb 44f 29f
8:30am 8 14 mph 1029.8mb 44f 29f
8:24am 10 14 mph 1029.8mb 44f 29f
8:18am 9 14 mph 1029.7mb 45f 29f
8:12am 6 11 mph 1029.6mb 46f 29f
8:06am 7 14 mph 1029.6mb 48f 29f
8:00am 7 11 mph 1029.6mb 49f 29f
7:54am 8 11 mph 1029.6mb 49f 29f
7:48am 7 10 mph 1029.6mb 50f 29f
7:36am 8 13 mph 1029.4mb 51f 29f
7:30am 8 17 mph 1029.5mb 51f 29f
7:24am 8 14 mph 1029.5mb 51f 29f
7:18am 6 14 mph 1029.6mb 51f 29f
7:12am 8 13 mph 1029.5mb 50f 29f
7:06am 7 11 mph 1029.4mb 50f 29f
7:00am 7 15 mph 1029.4mb 50f 29f
6:54am 8 13 mph 1029.4mb 50f 29f
6:48am 9 15 mph 1029.4mb 50f 29f
6:36am 7 11 mph 1029.5mb 50f 29f
6:30am 8 13 mph 1029.5mb 50f 29f
6:24am 7 10 mph 1029.6mb 51f 29f
6:18am 7 13 mph 1029.6mb 50f 29f
6:12am 9 15 mph 1029.6mb 50f 30f
6:06am 9 14 mph 1029.6mb 50f 30f
6:00am 7 15 mph 1029.6mb 50f 30f
5:54am 8 13 mph 1029.6mb 50f 30f
5:48am 10 14 mph 1029.6mb 50f 30f
5:36am 8 14 mph 1029.6mb 50f 30f
5:30am 7 11 mph 1029.6mb 50f 30f
5:24am 10 14 mph 1029.6mb 50f 30f
5:18am 9 14 mph 1029.6mb 50f 30f
5:12am 9 14 mph 1029.5mb 50f 30f
5:06am 7 13 mph 1029.6mb 50f 30f
5:00am 7 11 mph 1029.6mb 50f 30f
4:54am 8 11 mph 1029.6mb 50f 30f
4:48am 7 10 mph 1029.7mb 49f 30f
4:36am 7 14 mph 1029.7mb 49f 30f
4:30am 10 14 mph 1029.7mb 49f 30f
4:24am 7 13 mph 1029.7mb 49f 30f
4:18am 9 14 mph 1029.7mb 48f 30f
4:12am 8 13 mph 1029.7mb 48f 30f
4:06am 8 13 mph 1029.6mb 47f 30f
4:00am 6 11 mph 1029.6mb 47f 30f
3:54am 6 11 mph 1029.5mb 46f 30f
3:48am 9 13 mph 1029.5mb 45f 30f
3:36am 9 14 mph 1029.5mb 41f 30f
3:30am 8 13 mph 1029.5mb 39f 30f
3:24am 7 11 mph 1029.5mb 38f 30f
3:18am 7 10 mph 1029.5mb 38f 30f
3:12am 7 9 mph 1029.5mb 38f 30f
3:06am 7 11 mph 1029.5mb 38f 30f
3:00am 7 9 mph 1029.5mb 38f 30f
2:54am 7 13 mph 1029.5mb 38f 30f
2:48am 7 10 mph 1029.5mb 38f 30f
2:36am 7 10 mph 1029.5mb 39f 30f
2:30am 6 9 mph 1029.5mb 39f 31f
2:24am 6 10 mph 1029.5mb 39f 30f
2:18am 6 9 mph 1029.4mb 39f 31f
2:12am 7 10 mph 1029.4mb 38f 31f
2:06am 7 9 mph 1029.4mb 38f 31f
2:00am 6 10 mph 1029.3mb 38f 31f
1:54am 8 10 mph 1029.2mb 38f 31f
1:48am 8 10 mph 1029.2mb 38f 31f
1:36am 8 11 mph 1029.1mb 38f 31f
1:30am 7 11 mph 1029.1mb 38f 31f
1:24am 7 11 mph 1029.1mb 38f 31f
1:18am 7 10 mph 1029.1mb 38f 31f
1:12am 7 9 mph 1029mb 38f 31f
1:06am 7 9 mph 1029mb 38f 31f
1:00am 7 9 mph 1028.9mb 38f 31f
12:54am 7 10 mph 1028.8mb 38f 31f
12:48am 7 10 mph 1028.7mb 38f 31f
12:36am 6 9 mph 1028.6mb 38f 32f
12:30am 7 9 mph 1028.6mb 38f 32f
12:24am 6 8 mph 1028.5mb 38f 32f
12:18am 7 8 mph 1028.5mb 38f 32f
12:12am 7 8 mph 1028.5mb 38f 32f
12:06am 5 9 mph 1028.4mb 38f 32f
12:00am 7 10 mph 1028.2mb 38f 32f
Tue 12/06 11:54pm 7 9 mph 1028.2mb 38f 32f
11:48pm 6 9 mph 1028.2mb 38f 32f
11:36pm 7 10 mph 1028mb 38f 32f
11:30pm 7 10 mph 1028mb 38f 32f
11:24pm 7 10 mph 1028mb 38f 32f
11:18pm 7 10 mph 1027.8mb 38f 32f
11:12pm 9 13 mph 1027.8mb 38f 32f
11:06pm 8 11 mph 1027.7mb 38f 32f
11:00pm 7 13 mph 1027.6mb 38f 32f
10:54pm 8 11 mph 1027.6mb 38f 32f
10:48pm 6 10 mph 1027.6mb 38f 32f
10:36pm 6 9 mph 1027.5mb 38f 32f
10:30pm 7 10 mph 1027.4mb 38f 32f
10:24pm 8 11 mph 1027.4mb 38f 32f
10:18pm 7 10 mph 1027.4mb 38f 32f
10:12pm 7 10 mph 1027.3mb 38f 32f
10:06pm 7 10 mph 1027.3mb 38f 32f
10:00pm 8 10 mph 1027.2mb 38f 32f
9:54pm 7 9 mph 1027.2mb 38f 32f
9:48pm 6 11 mph 1027.1mb 38f 32f
9:36pm 6 9 mph 1027mb 38f 32f
9:30pm 7 9 mph 1026.9mb 38f 32f
9:24pm 7 10 mph - - 32f
9:18pm 7 9 mph 1026.9mb 39f 32f
9:12pm 7 9 mph 1026.8mb 39f 32f
9:06pm 7 9 mph 1026.7mb 39f 32f
9:00pm 7 9 mph 1026.7mb 39f 32f
8:54pm 6 10 mph 1026.6mb 39f 32f
8:48pm 7 11 mph 1026.4mb 39f 32f
8:36pm 6 8 mph 1026.4mb 39f 32f
8:30pm 6 9 mph 1026.4mb 39f 32f
8:24pm 6 8 mph 1026.3mb 39f 32f
8:18pm 6 9 mph 1026.2mb 39f 32f
8:12pm 6 9 mph 1026.2mb 39f 32f
8:06pm 7 10 mph 1026.1mb 39f 32f
8:00pm 5 7 mph 1026.1mb 39f 32f
7:54pm 6 8 mph 1026.1mb 39f 32f
7:48pm 6 8 mph 1026.1mb 40f 32f
7:36pm 6 8 mph 1025.9mb 40f 32f
7:30pm 5 8 mph 1025.7mb 40f 32f
7:24pm 6 9 mph 1025.6mb 39f 32f
7:18pm 6 8 mph 1025.5mb 39f 32f
7:12pm 6 8 mph 1025.5mb 39f 32f
7:06pm 6 8 mph 1025.5mb 39f 32f
7:00pm 5 8 mph 1025.5mb 40f 32f
6:54pm 6 8 mph 1025.3mb 40f 32f
6:48pm 6 9 mph 1025.3mb 40f 32f
5:54pm 5 7 mph 1025.2mb 44f 33f
5:48pm 5 6 mph 1025.2mb 45f 33f
4:54pm 2 6 mph 1024.7mb 49f 34f
4:48pm 2 6 mph 1024.7mb 49f 35f
3:54pm 6 9 mph 1024.5mb 49f 37f
3:48pm 6 8 mph 1024.4mb 49f 37f
3:36pm 5 9 mph 1024.3mb 49f 38f
3:30pm 6 9 mph 1024.3mb 48f 38f
3:24pm 5 7 mph 1024.2mb 47f 38f
3:18pm 6 11 mph 1024.3mb 46f 38f
3:12pm 6 9 mph 1024.2mb 45f 38f
3:06pm 6 9 mph 1024.1mb 44f 38f
3:00pm 5 9 mph 1024mb 43f 38f
2:54pm 3 11 mph 1024mb 42f 38f
2:48pm 6 10 mph 1024mb 42f 38f
2:36pm 7 11 mph 1023.8mb 39f 38f
2:30pm 8 13 mph 1023.7mb 39f 38f
2:24pm 5 11 mph 1023.7mb 39f 38f
2:18pm 6 14 mph 1023.6mb 39f 38f
2:12pm 10 14 mph 1023.4mb 39f 38f
2:06pm 10 14 mph 1023.4mb 39f 38f
2:00pm 6 11 mph 1023.4mb 39f 38f
1:54pm 9 15 mph 1023.3mb 39f 38f
1:48pm 7 11 mph 1023.3mb 39f 38f
1:36pm 7 10 mph 1023.1mb 39f 38f
1:30pm 8 14 mph 1023.1mb 38f 38f
1:24pm 7 15 mph 1023mb 38f 38f
1:18pm 8 11 mph 1022.9mb 38f 38f
1:12pm 9 17 mph 1022.9mb 38f 38f
1:06pm 8 13 mph 1022.9mb 38f 38f
1:00pm 7 18 mph 1022.8mb 39f 38f
12:54pm 9 17 mph 1022.9mb 39f 38f
12:48pm 10 20 mph 1022.8mb 39f 38f
12:36pm 8 16 mph 1022.8mb 38f 38f
12:30pm 10 16 mph 1022.8mb 39f 38f
12:24pm 8 16 mph 1022.8mb 39f 38f
12:18pm 7 13 mph 1022.8mb 39f 38f
12:12pm 8 15 mph 1022.7mb 39f 38f
12:06pm 8 14 mph 1022.7mb 39f 38f
12:00pm 7 11 mph 1022.5mb 39f 38f
11:54am 7 14 mph 1022.4mb 39f 38f
11:48am 9 16 mph 1022.5mb 39f 37f
11:36am 8 13 mph 1022.5mb 39f 37f
11:30am 8 14 mph 1022.4mb 38f 37f
11:24am 8 14 mph 1022.4mb 38f 37f
11:18am 7 16 mph 1022.4mb 38f 37f
11:12am 7 14 mph 1022.3mb 39f 37f
11:06am 6 15 mph 1022.2mb 39f 37f
11:00am 10 21 mph 1022.2mb 39f 37f
10:54am 9 18 mph 1022.1mb 39f 37f
10:48am 7 15 mph 1022.1mb 39f 37f
10:30am 7 14 mph 1022.1mb 39f 36f
10:24am 7 13 mph 1022.1mb 39f 36f
10:18am 6 11 mph 1022.1mb 39f 36f
10:12am 6 13 mph 1022mb 39f 35f
10:06am 6 9 mph 1021.9mb 39f 35f
10:00am 7 8 mph 1021.8mb 39f 35f
9:54am 6 8 mph 1021.8mb 39f 35f
9:48am 5 10 mph 1021.8mb 39f 35f
9:30am 1 9 mph 1021.6mb 39f 34f
9:24am 2 9 mph 1021.5mb 40f 34f
9:18am 3 8 mph 1021.3mb 40f 34f
9:12am 6 8 mph 1021.2mb 40f 34f
9:06am 3 9 mph 1021.1mb 40f 34f
9:00am 5 9 mph 1021.1mb 40f 34f
8:54am 6 14 mph 1021mb 40f 34f
8:48am 6 14 mph 1020.9mb 40f 34f
8:36am 9 16 mph 1020.7mb 40f 33f
8:30am 7 15 mph 1020.6mb 40f 33f
8:24am 7 10 mph 1020.5mb 40f 33f
8:18am 5 14 mph 1020.3mb 40f 33f
8:12am 7 13 mph 1020.3mb 40f 33f
8:06am 5 11 mph 1020.3mb 40f 33f
8:00am 6 10 mph 1020.4mb 41f 33f
7:54am 6 13 mph 1020.3mb 41f 33f
7:48am 7 13 mph 1020.2mb 41f 33f
7:36am 7 13 mph 1020.1mb 41f 33f
7:30am 7 14 mph 1020mb 41f 33f
7:24am 7 13 mph 1019.9mb 41f 33f
7:18am 6 9 mph 1019.8mb 41f 33f
7:12am 6 10 mph 1019.7mb 41f 33f
7:06am 6 10 mph 1019.6mb 41f 33f
7:00am 6 10 mph 1019.5mb 41f 33f
6:54am 5 10 mph 1019.4mb 41f 33f
6:48am 6 9 mph 1019.4mb 41f 33f
6:36am 6 13 mph 1019.3mb 41f 33f
6:30am 7 9 mph 1019.2mb 41f 33f
6:24am 8 10 mph 1019.2mb 42f 33f
6:18am 7 13 mph 1019.2mb 43f 33f
6:12am 7 13 mph 1019.1mb 43f 33f
6:06am 8 14 mph 1019.1mb 43f 34f
6:00am 7 14 mph 1019mb 44f 34f
5:54am 9 16 mph 1018.9mb 44f 33f
5:48am 9 14 mph 1018.9mb 45f 33f
5:36am 7 14 mph 1018.8mb 45f 33f
5:30am 6 10 mph 1018.7mb 44f 33f
5:24am 7 13 mph 1018.7mb 44f 34f
5:18am 8 15 mph 1018.6mb 45f 33f
5:12am 8 14 mph 1018.5mb 45f 33f
5:06am 8 13 mph 1018.5mb 45f 33f
5:00am 8 14 mph 1018.5mb 45f 33f
4:54am 6 15 mph 1018.4mb 45f 33f
4:48am 5 14 mph 1018.4mb 45f 33f
4:36am 6 13 mph 1018.3mb 44f 33f
4:30am 6 13 mph 1018.2mb 44f 33f
4:24am 6 14 mph 1018.2mb 44f 33f
4:18am 5 13 mph 1018.1mb 43f 33f
4:12am 7 14 mph 1018mb 42f 33f
4:06am 8 13 mph 1018mb 42f 33f
4:00am 8 14 mph 1017.9mb 42f 33f
3:54am 8 11 mph 1017.9mb 41f 33f
3:48am 7 11 mph 1017.9mb 40f 33f
3:36am 6 10 mph 1018mb 40f 33f
3:30am 3 9 mph 1017.9mb 40f 33f
3:24am 5 9 mph 1018mb 40f 33f
3:18am 5 9 mph 1018mb 40f 33f
3:12am 5 8 mph 1017.9mb 40f 32f
3:06am 5 7 mph 1017.9mb 40f 32f
3:00am 5 6 mph 1017.8mb 41f 32f
2:54am 3 6 mph 1017.8mb 41f 31f
2:48am 3 6 mph 1017.7mb 41f 31f
2:36am 3 6 mph 1017.6mb 40f 31f
2:30am 5 6 mph 1017.6mb 41f 31f
2:24am 3 5 mph 1017.5mb 40f 31f
2:18am 3 6 mph 1017.5mb 40f 31f
2:12am 5 6 mph 1017.4mb 40f 31f
2:06am 5 6 mph 1017.3mb 40f 31f
2:00am 5 6 mph 1017.3mb 40f 31f
1:54am 6 7 mph 1017.2mb 41f 31f
1:48am 6
mph
1017.2mb 41f 31f
1:36am 6 7 mph 1017.1mb 41f 31f
1:30am 6 7 mph 1017.1mb 41f 31f
1:24am 5 7 mph 1017.1mb 41f 31f
1:18am 5 7 mph 1017.2mb 41f 31f
1:12am 6 7 mph 1017.1mb 41f 31f
1:06am 7
mph
1017.1mb 41f 31f
1:00am 7 8 mph 1017.1mb 41f 32f
12:54am 7 8 mph 1017.2mb 41f 32f
12:48am 7 8 mph 1017.1mb 41f 32f
12:36am 6 8 mph 1017.1mb 41f 32f
12:30am 6 7 mph 1017mb 41f 31f
12:24am 6 7 mph 1017mb 41f 31f
12:18am 6 8 mph 1017mb 41f 31f
12:12am 6 7 mph 1017mb 41f 32f
12:06am 6 7 mph 1017mb 41f 32f
12:00am 5 7 mph 1016.9mb 41f 31f
Mon 12/05 11:54pm 6 7 mph 1016.9mb 41f 31f
11:48pm 6 7 mph 1016.9mb 40f 32f
11:36pm 6 8 mph 1016.8mb 40f 32f
11:30pm 7 8 mph 1016.8mb 40f 32f
11:24pm 6 8 mph 1016.9mb 40f 32f
11:18pm 6 8 mph 1016.9mb 40f 32f